Inverness, United Kingdom

5:23 PM BST on May 22, 2017 (GMT +0100)
Inverness

Weather History for EGPE - March, 2013

Change the Weather History Date:

Friday, March 29, 2013

  Actual Average Record
Temperature  
Mean Temperature 30 °F -  
Max Temperature 42 °F 51 °F 57 °F (2002)
Min Temperature 17 °F 37 °F 17 °F (2013)
Degree Days  
Heating Degree Days 36    
Moisture  
Dew Point 26 °F    
Average Humidity 85    
Maximum Humidity 100    
Minimum Humidity 61    
Precipitation  
Precipitation 0.00 in - - ()
Sea Level Pressure  
Sea Level Pressure 30.03 in    
Wind  
Wind Speed 4 mph ()    
Max Wind Speed 13 mph    
Max Gust Speed -    
Visibility 6.2 miles    
Events      
Averages and records for this station are not official NWS values.
T = Trace of Precipitation, MM = Missing Value Source: Averaged Metar Reports

Daily Weather History Graph

Daily Weather History Graph

Search for Another Location

Airport or City:

Trip Planner

Search our weather history database for the weather conditions in past years. The results will help you decide how hot, cold, wet, or windy it might be!

Date:

Astronomy

Mar. 29, 2013 Rise Set
Actual Time 5:52 AM GMT 6:50 PM GMT
Civil Twilight 5:13 AM GMT 7:29 PM GMT
Nautical Twilight 4:25 AM GMT 8:17 PM GMT
Astronomical Twilight 3:32 AM GMT 9:11 PM GMT
Moon 10:16 PM GMT (3/29) 6:18 AM GMT (3/29)
Length of Visible Light 14h 16m
Length of Day
12h 57m
Waning Gibbous, 94% of the Moon is Illuminated
Mar 29
Waning Gibbous
Apr 3
Last Quarter
Apr 10
New
Apr 18
First Quarter
Apr 25
Full

Hourly Weather History & Observations

Time (GMT) Temp. Windchill Dew Point Humidity Pressure Visibility Wind Dir Wind Speed Gust Speed Precip Events Conditions
12:20 AM 23.0 °F - 23.0 °F 100% 30.09 in 6.2 mi Calm Calm - N/A   Unknown
12:50 AM 21.2 °F - 21.2 °F 100% 30.09 in 6.2 mi Calm Calm - N/A   Unknown
1:20 AM 21.2 °F - 19.4 °F 93% 30.06 in 6.2 mi Calm Calm - N/A   Unknown
1:50 AM 23.0 °F - 23.0 °F 100% 30.06 in 6.2 mi Calm Calm - N/A   Unknown
2:20 AM 21.2 °F - 21.2 °F 100% 30.06 in 6.2 mi South 2.3 mph - N/A   Unknown
2:50 AM 19.4 °F 12.8 °F 17.6 °F 93% 30.06 in - SW 4.6 mph - N/A   Clear
3:20 AM 21.2 °F 16.4 °F 21.2 °F 100% 30.06 in - SSW 3.5 mph - N/A   Clear
3:50 AM 19.4 °F - 19.4 °F 100% 30.06 in 6.2 mi SSW 2.3 mph - N/A   Partly Cloudy
4:20 AM 21.2 °F - 21.2 °F 100% 30.06 in 6.2 mi South 2.3 mph - N/A   Partly Cloudy
4:50 AM 21.2 °F - 19.4 °F 93% 30.06 in 6.2 mi Calm Calm - N/A   Partly Cloudy
5:20 AM 21.2 °F 16.4 °F 19.4 °F 93% 30.06 in 6.2 mi SSW 3.5 mph - N/A   Partly Cloudy
5:50 AM 17.6 °F 10.7 °F 15.8 °F 93% 30.06 in 6.2 mi SSW 4.6 mph - N/A   Partly Cloudy
6:20 AM 19.4 °F 12.8 °F 17.6 °F 93% 30.06 in 6.2 mi SW 4.6 mph - N/A   Partly Cloudy
6:50 AM 23.0 °F 18.4 °F 21.2 °F 93% 30.06 in 6.2 mi SW 3.5 mph - N/A   Partly Cloudy
7:20 AM 26.6 °F 22.6 °F 24.8 °F 93% 30.06 in 6.2 mi SSW 3.5 mph - N/A   Partly Cloudy
7:50 AM 28.4 °F 24.6 °F 24.8 °F 86% 30.06 in 6.2 mi SW 3.5 mph - N/A   Partly Cloudy
8:20 AM 30.2 °F 24.3 °F 28.4 °F 93% 30.06 in 6.2 mi SW 5.8 mph - N/A   Partly Cloudy
8:50 AM 32.0 °F 28.7 °F 28.4 °F 87% 30.06 in 6.2 mi Variable 3.5 mph - N/A   Partly Cloudy
9:20 AM 35.6 °F 32.8 °F 28.4 °F 75% 30.06 in 6.2 mi SW 3.5 mph - N/A   Partly Cloudy
9:50 AM 37.4 °F 34.9 °F 28.4 °F 70% 30.06 in 6.2 mi Variable 3.5 mph - N/A   Partly Cloudy
10:20 AM 37.4 °F 34.9 °F 28.4 °F 70% 30.04 in 6.2 mi Variable 3.5 mph - N/A   Partly Cloudy
10:50 AM 37.4 °F - 28.4 °F 70% 30.04 in 6.2 mi Calm Calm - N/A   Partly Cloudy
11:20 AM 39.2 °F - 30.2 °F 70% 30.04 in 6.2 mi Variable 2.3 mph - N/A   Partly Cloudy
11:50 AM 42.8 °F 41.1 °F 30.2 °F 61% 30.04 in 6.2 mi Variable 3.5 mph - N/A   Partly Cloudy
12:20 PM 41.0 °F 35.2 °F 30.2 °F 65% 30.01 in 6.2 mi North 9.2 mph - N/A   Partly Cloudy
12:50 PM 42.8 °F 37.0 °F 32.0 °F 66% 30.01 in 6.2 mi NE 10.4 mph - N/A   Partly Cloudy
1:20 PM 41.0 °F 34.3 °F 33.8 °F 76% 30.01 in 6.2 mi ENE 11.5 mph - N/A   Partly Cloudy
1:50 PM 41.0 °F 35.2 °F 32.0 °F 70% 30.01 in 6.2 mi ENE 9.2 mph - N/A   Partly Cloudy
2:20 PM 42.8 °F 37.0 °F 32.0 °F 66% 29.98 in 6.2 mi NE 10.4 mph - N/A   Partly Cloudy
2:50 PM 39.2 °F 32.0 °F 30.2 °F 70% 29.98 in 6.2 mi NE 11.5 mph - N/A   Partly Cloudy
3:20 PM 42.8 °F 36.6 °F 32.0 °F 66% 29.98 in 6.2 mi NE 11.5 mph - N/A   Partly Cloudy
3:50 PM 39.2 °F 31.6 °F 32.0 °F 75% 29.98 in 6.2 mi NE 12.7 mph - N/A   Partly Cloudy
4:20 PM 41.0 °F 33.9 °F 30.2 °F 65% 29.98 in 6.2 mi NE 12.7 mph - N/A   Scattered Clouds
4:50 PM 39.2 °F 31.6 °F 32.0 °F 75% 29.98 in 6.2 mi NE 12.7 mph - N/A   Scattered Clouds
5:20 PM 39.2 °F 32.0 °F 32.0 °F 75% 29.98 in 6.2 mi NE 11.5 mph - N/A   Scattered Clouds
5:50 PM 37.4 °F 29.8 °F 30.2 °F 75% 29.98 in 6.2 mi NE 11.5 mph - N/A   Partly Cloudy
6:20 PM 37.4 °F 29.8 °F 32.0 °F 81% 29.98 in 6.2 mi NE 11.5 mph - N/A   Scattered Clouds
6:50 PM 33.8 °F 27.0 °F 30.2 °F 87% 29.98 in 6.2 mi NE 8.1 mph - N/A   Partly Cloudy
7:20 PM 32.0 °F 26.4 °F 28.4 °F 87% 29.98 in 6.2 mi ENE 5.8 mph - N/A   Partly Cloudy
7:50 PM 30.2 °F 25.4 °F 28.4 °F 93% 29.98 in 6.2 mi East 4.6 mph - N/A   Partly Cloudy
8:20 PM 30.2 °F 25.4 °F 28.4 °F 93% 30.01 in 6.2 mi East 4.6 mph - N/A   Partly Cloudy
8:50 PM 28.4 °F 23.3 °F 26.6 °F 93% 30.01 in 6.2 mi East 4.6 mph - N/A   Partly Cloudy
9:20 PM 30.2 °F 25.4 °F 28.4 °F 93% 30.01 in 6.2 mi ESE 4.6 mph - N/A   Unknown
9:50 PM 26.6 °F - 26.6 °F 100% 30.01 in 6.2 mi Variable 2.3 mph - N/A   Scattered Clouds
10:20 PM 26.6 °F - 24.8 °F 93% 30.01 in 6.2 mi Calm Calm - N/A   Unknown
10:50 PM 26.6 °F - 24.8 °F 93% 30.01 in 6.2 mi Calm Calm - N/A   Unknown
11:20 PM 24.8 °F - 24.8 °F 100% 30.01 in 6.2 mi Calm Calm - N/A   Unknown
11:50 PM 23.0 °F - 21.2 °F 93% 30.01 in 6.2 mi Calm Calm - N/A   Unknown